Location: Cul de Sac
(18.0387°N, 63.0654°W)
Time: 07:55:37
(UTC+00:00)

Meteor 2-1 Rocket - Pass Details

Date: 29 October 2020
Orbit: 830 x 906 km, 81.3° (Epoch: 28 November)

Event Time Altitude Azimuth Distance (km) Brightness Sun altitude
Rises 22:18:42 0° 183° (S) 3,385 7.5 -9.5°
Reaches altitude 10° 22:21:07 10° 183° (S) 2,444 6.8 -10.1°
Maximum altitude 22:26:38 84° 95° (E) 839 4.1 -11.4°
Drops below altitude 10° 22:32:08 10° 8° (N) 2,432 6.4 -12.7°
Sets 22:34:32 0° 7° (N) 3,368 7.1 -13.2°
